Location: Newark
(50.2553°N, 2.4750°E)
Time: 18:31:58
(UTC+00:00)

N. Korean satellite - Visible Passes

Search period start: 17 November 2019 00:00
Search period end: 27 November 2019 00:00
Orbit: 456 x 506 km, 97.2° (Epoch: 16 November)

Date Brightness Start Highest point End Pass type
(mag) Time Alt. Az. Time Alt. Az. Time Alt. Az.
17 Nov 8.1 05:25:21 10° NNE 05:28:54 40° E 05:32:24 10° S visible
17 Nov 9.3 17:39:00 10° SSW 17:41:58 23° W 17:44:59 10° NW visible
18 Nov 9.3 05:00:24 10° NE 05:03:22 22° E 05:06:18 10° SE visible
18 Nov 8.0 17:12:56 10° S 17:16:26 43° W 17:20:00 10° NNW visible
19 Nov 10.2 04:36:09 10° ENE 04:37:44 12° E 04:39:18 10° ESE visible
19 Nov 6.6 06:07:51 10° N 06:11:34 65° WNW 06:15:12 10° SSW visible
19 Nov 6.7 16:47:21 10° SSE 16:51:00 86° W 16:54:44 10° NNW visible
20 Nov 7.1 05:42:27 10° NNE 05:46:11 64° E 05:49:49 10° S visible
20 Nov 9.9 17:57:01 10° SW 17:59:20 16° W 18:01:40 10° NW visible
21 Nov 8.5 05:17:18 10° NNE 05:20:42 33° E 05:24:02 10° SSE visible
21 Nov 8.9 17:30:31 10° SSW 17:33:44 28° W 17:37:00 10° NNW visible
22 Nov 9.6 04:52:29 10° NE 04:55:07 18° E 04:57:43 10° SE visible
22 Nov 7.0 06:25:12 10° N 06:28:43 41° WNW 06:32:10 10° SW visible
22 Nov 7.5 17:04:37 10° S 17:08:13 54° W 17:11:54 10° NNW visible
23 Nov 6.5 05:59:39 10° N 06:03:23 80° WNW 06:07:01 10° SSW visible
23 Nov 6.6 16:39:08 10° SSE 16:42:48 77° ENE 16:46:33 10° N visible
23 Nov 10.3 18:16:00 10° W 18:16:43 10° W 18:17:25 10° WNW visible
24 Nov 7.5 05:34:19 10° NNE 05:37:58 51° E 05:41:31 10° S visible
24 Nov 9.6 17:48:21 10° SW 17:51:03 19° W 17:53:46 10° NW visible
25 Nov 8.9 05:09:14 10° NE 05:12:26 27° E 05:15:34 10° SSE visible
25 Nov 8.5 17:22:04 10° SSW 17:25:28 34° W 17:28:55 10° NNW visible
26 Nov 9.9 04:44:37 10° NE 04:46:48 15° E 04:48:58 10° SE visible
26 Nov 6.8 06:16:55 10° N 06:20:31 50° WNW 06:24:02 10° SSW visible
26 Nov 7.1 16:56:18 10° S 16:59:59 67° WSW 17:03:43 10° NNW visible
